Time,TemperatureF,DewpointF,PressureIn,WindDirection,WindDirectionDegrees,WindSpeedMPH,WindSpeedGustMPH,Humidity,HourlyPrecipIn,Conditions,Clouds,dailyrainin,SoftwareType,DateUTC
2013-11-09 00:11:00,36.5,30.0,30.14,SW,225,3.0,-999.0,77,-99.99,,,0.00,weatherlink.com 1.10,2013-11-09 05:11:00,
2013-11-09 00:26:00,36.1,30.0,30.14,SW,225,3.0,-999.0,77,-99.99,,,0.00,weatherlink.com 1.10,2013-11-09 05:26:00,
2013-11-09 00:41:00,36.3,30.0,30.14,SSW,213,2.0,-999.0,77,-99.99,,,0.00,weatherlink.com 1.10,2013-11-09 05:41:00,
2013-11-09 00:56:00,36.3,30.0,30.15,SW,214,3.0,-999.0,78,-99.99,,,0.00,weatherlink.com 1.10,2013-11-09 05:56:00,
2013-11-09 01:11:00,35.7,30.0,30.15,SW,214,0.0,-999.0,79,-99.99,,,0.00,weatherlink.com 1.10,2013-11-09 06:11:00,
2013-11-09 01:26:00,35.5,30.0,30.15,SW,214,2.0,-999.0,80,-99.99,,,0.00,weatherlink.com 1.10,2013-11-09 06:26:00,
2013-11-09 01:41:00,35.2,30.0,30.16,SW,214,2.0,-999.0,80,-99.99,,,0.00,weatherlink.com 1.10,2013-11-09 06:41:00,
2013-11-09 01:56:00,35.3,30.0,30.16,SW,214,0.0,-999.0,80,-99.99,,,0.00,weatherlink.com 1.10,2013-11-09 06:56:00,
2013-11-09 02:11:00,36.1,30.0,30.16,SW,215,3.0,-999.0,79,-99.99,,,0.00,weatherlink.com 1.10,2013-11-09 07:11:00,
2013-11-09 02:26:00,36.4,30.0,30.16,WSW,255,2.0,-999.0,78,-99.99,,,0.00,weatherlink.com 1.10,2013-11-09 07:26:00,
2013-11-09 02:41:00,35.9,30.0,30.16,WSW,255,1.0,-999.0,78,-99.99,,,0.00,weatherlink.com 1.10,2013-11-09 07:41:00,
2013-11-09 02:56:00,35.7,30.0,30.17,WSW,255,0.0,-999.0,79,-99.99,,,0.00,weatherlink.com 1.10,2013-11-09 07:56:00,
2013-11-09 03:11:00,35.3,30.0,30.17,WSW,255,0.0,-999.0,80,-99.99,,,0.00,weatherlink.com 1.10,2013-11-09 08:11:00,
2013-11-09 03:26:00,34.2,29.0,30.17,WSW,255,0.0,-999.0,81,-99.99,,,0.00,weatherlink.com 1.10,2013-11-09 08:26:00,
2013-11-09 03:41:00,33.6,29.0,30.18,WSW,255,2.0,-999.0,83,-99.99,,,0.00,weatherlink.com 1.10,2013-11-09 08:41:00,
2013-11-09 03:56:00,34.1,29.0,30.17,WSW,254,2.0,-999.0,82,-99.99,,,0.00,weatherlink.com 1.10,2013-11-09 08:56:00,
2013-11-09 04:11:00,34.1,29.0,30.18,WSW,254,2.0,-999.0,82,-99.99,,,0.00,weatherlink.com 1.10,2013-11-09 09:11:00,
2013-11-09 04:26:00,34.1,29.0,30.19,SW,219,4.0,-999.0,81,-99.99,,,0.00,weatherlink.com 1.10,2013-11-09 09:26:00,
2013-11-09 04:41:00,34.1,29.0,30.18,SW,219,4.0,-999.0,81,-99.99,,,0.00,weatherlink.com 1.10,2013-11-09 09:41:00,
2013-11-09 04:56:00,33.9,29.0,30.20,SW,219,3.0,-999.0,81,-99.99,,,0.00,weatherlink.com 1.10,2013-11-09 09:56:00,
2013-11-09 05:11:00,33.7,28.0,30.19,SW,227,3.0,-999.0,81,-99.99,,,0.00,weatherlink.com 1.10,2013-11-09 10:11:00,
2013-11-09 05:26:00,33.6,28.0,30.19,SW,227,1.0,-999.0,81,-99.99,,,0.00,weatherlink.com 1.10,2013-11-09 10:26:00,
2013-11-09 05:41:00,33.6,28.0,30.19,SW,227,3.0,-999.0,81,-99.99,,,0.00,weatherlink.com 1.10,2013-11-09 10:41:00,
2013-11-09 05:56:00,33.6,28.0,30.20,SW,227,3.0,-999.0,81,-99.99,,,0.00,weatherlink.com 1.10,2013-11-09 10:56:00,
2013-11-09 06:11:00,33.3,28.0,30.20,SW,227,2.0,-999.0,82,-99.99,,,0.00,weatherlink.com 1.10,2013-11-09 11:11:00,
2013-11-09 06:26:00,32.8,28.0,30.20,SW,227,1.0,-999.0,82,-99.99,,,0.00,weatherlink.com 1.10,2013-11-09 11:26:00,
2013-11-09 06:41:00,32.8,28.0,30.20,SW,227,2.0,-999.0,83,-99.99,,,0.00,weatherlink.com 1.10,2013-11-09 11:41:00,
2013-11-09 06:56:00,33.0,28.0,30.20,SW,227,0.0,-999.0,83,-99.99,,,0.00,weatherlink.com 1.10,2013-11-09 11:56:00,
2013-11-09 07:11:00,33.3,29.0,30.20,SW,227,0.0,-999.0,83,-99.99,,,0.00,weatherlink.com 1.10,2013-11-09 12:11:00,
2013-11-09 07:26:00,34.0,29.0,30.21,SW,227,0.0,-999.0,82,-99.99,,,0.00,weatherlink.com 1.10,2013-11-09 12:26:00,
2013-11-09 07:41:00,34.9,30.0,30.20,SW,227,0.0,-999.0,81,-99.99,,,0.00,weatherlink.com 1.10,2013-11-09 12:41:00,
2013-11-09 07:56:00,36.0,30.0,30.21,SW,227,0.0,-999.0,80,-99.99,,,0.00,weatherlink.com 1.10,2013-11-09 12:56:00,
2013-11-09 08:11:00,37.5,31.0,30.21,SW,227,2.0,-999.0,77,-99.99,,,0.00,weatherlink.com 1.10,2013-11-09 13:11:00,
2013-11-09 08:26:00,39.1,32.0,30.20,SW,227,0.0,-999.0,75,-99.99,,,0.00,weatherlink.com 1.10,2013-11-09 13:26:00,
2013-11-09 08:41:00,40.5,32.0,30.20,WSW,252,4.0,-999.0,71,-99.99,,,0.00,weatherlink.com 1.10,2013-11-09 13:41:00,
2013-11-09 08:56:00,42.2,32.0,30.20,SW,232,4.0,-999.0,67,-99.99,,,0.00,weatherlink.com 1.10,2013-11-09 13:56:00,
2013-11-09 09:11:00,43.4,32.0,30.21,West,271,1.0,-999.0,65,-99.99,,,0.00,weatherlink.com 1.10,2013-11-09 14:11:00,
2013-11-09 09:26:00,44.4,32.0,30.21,NW,307,7.0,-999.0,62,-99.99,,,0.00,weatherlink.com 1.10,2013-11-09 14:26:00,
2013-11-09 09:41:00,45.6,31.0,30.19,WSW,251,5.0,-999.0,58,-99.99,,,0.00,weatherlink.com 1.10,2013-11-09 14:41:00,
2013-11-09 09:56:00,45.6,30.0,30.20,SW,226,8.0,-999.0,55,-99.99,,,0.00,weatherlink.com 1.10,2013-11-09 14:56:00,
2013-11-09 10:11:00,45.7,30.0,30.18,SW,236,2.0,-999.0,54,-99.99,,,0.00,weatherlink.com 1.10,2013-11-09 15:11:00,
2013-11-09 10:26:00,46.0,30.0,30.19,WNW,282,7.0,-999.0,53,-99.99,,,0.00,weatherlink.com 1.10,2013-11-09 15:26:00,
2013-11-09 10:41:00,46.2,29.0,30.19,NW,306,0.0,-999.0,52,-99.99,,,0.00,weatherlink.com 1.10,2013-11-09 15:41:00,
2013-11-09 10:56:00,46.4,29.0,30.18,West,276,1.0,-999.0,51,-99.99,,,0.00,weatherlink.com 1.10,2013-11-09 15:56:00,
2013-11-09 11:11:00,46.7,28.0,30.18,West,267,11.0,-999.0,49,-99.99,,,0.00,weatherlink.com 1.10,2013-11-09 16:11:00,
2013-11-09 11:26:00,46.7,28.0,30.16,WNW,302,9.0,-999.0,49,-99.99,,,0.00,weatherlink.com 1.10,2013-11-09 16:26:00,
2013-11-09 11:41:00,47.2,29.0,30.16,SW,217,0.0,-999.0,50,-99.99,,,0.00,weatherlink.com 1.10,2013-11-09 16:41:00,
2013-11-09 11:56:00,47.6,28.0,30.16,NW,315,8.0,-999.0,47,-99.99,,,0.00,weatherlink.com 1.10,2013-11-09 16:56:00,
2013-11-09 12:11:00,48.2,28.0,30.14,West,259,4.0,-999.0,46,-99.99,,,0.00,weatherlink.com 1.10,2013-11-09 17:11:00,
2013-11-09 12:26:00,48.2,28.0,30.14,SW,215,4.0,-999.0,46,-99.99,,,0.00,weatherlink.com 1.10,2013-11-09 17:26:00,
2013-11-09 12:41:00,48.5,28.0,30.13,SSW,209,7.0,-999.0,45,-99.99,,,0.00,weatherlink.com 1.10,2013-11-09 17:41:00,
2013-11-09 12:56:00,48.6,28.0,30.12,SW,230,4.0,-999.0,45,-99.99,,,0.00,weatherlink.com 1.10,2013-11-09 17:56:00,
2013-11-09 13:11:00,49.1,29.0,30.11,SSW,206,5.0,-999.0,46,-99.99,,,0.00,weatherlink.com 1.10,2013-11-09 18:11:00,
2013-11-09 13:26:00,48.9,29.0,30.11,SSW,193,3.0,-999.0,46,-99.99,,,0.00,weatherlink.com 1.10,2013-11-09 18:26:00,
2013-11-09 13:41:00,49.7,28.0,30.09,SW,214,4.0,-999.0,44,-99.99,,,0.00,weatherlink.com 1.10,2013-11-09 18:41:00,
2013-11-09 13:56:00,50.4,30.0,30.08,SSW,206,3.0,-999.0,45,-99.99,,,0.00,weatherlink.com 1.10,2013-11-09 18:56:00,
2013-11-09 14:11:00,50.4,30.0,30.08,SSW,203,6.0,-999.0,45,-99.99,,,0.00,weatherlink.com 1.10,2013-11-09 19:11:00,
2013-11-09 14:26:00,50.8,29.0,30.07,SW,223,5.0,-999.0,44,-99.99,,,0.00,weatherlink.com 1.10,2013-11-09 19:26:00,
2013-11-09 14:41:00,50.8,29.0,30.06,SW,227,2.0,-999.0,44,-99.99,,,0.00,weatherlink.com 1.10,2013-11-09 19:41:00,
2013-11-09 14:56:00,51.0,29.0,30.06,SSW,197,7.0,-999.0,43,-99.99,,,0.00,weatherlink.com 1.10,2013-11-09 19:56:00,
2013-11-09 15:11:00,51.0,29.0,30.06,SSW,205,1.0,-999.0,43,-99.99,,,0.00,weatherlink.com 1.10,2013-11-09 20:11:00,
2013-11-09 15:26:00,50.9,29.0,30.06,WSW,242,0.0,-999.0,43,-99.99,,,0.00,weatherlink.com 1.10,2013-11-09 20:26:00,
2013-11-09 15:41:00,50.5,29.0,30.05,SW,219,5.0,-999.0,44,-99.99,,,0.00,weatherlink.com 1.10,2013-11-09 20:41:00,
2013-11-09 15:56:00,49.6,31.0,30.04,SSW,201,4.0,-999.0,49,-99.99,,,0.00,weatherlink.com 1.10,2013-11-09 20:56:00,
2013-11-09 16:11:00,49.2,30.0,30.04,South,184,0.0,-999.0,48,-99.99,,,0.00,weatherlink.com 1.10,2013-11-09 21:11:00,
2013-11-09 16:26:00,48.9,30.0,30.05,SSW,192,0.0,-999.0,49,-99.99,,,0.00,weatherlink.com 1.10,2013-11-09 21:26:00,
2013-11-09 16:42:00,48.6,31.0,30.04,South,175,0.0,-999.0,50,-99.99,,,0.00,weatherlink.com 1.10,2013-11-09 21:42:00,
2013-11-09 16:57:00,48.3,31.0,30.04,SSW,202,1.0,-999.0,51,-99.99,,,0.00,weatherlink.com 1.10,2013-11-09 21:57:00,
2013-11-09 17:12:00,48.0,31.0,30.04,South,188,0.0,-999.0,52,-99.99,,,0.00,weatherlink.com 1.10,2013-11-09 22:12:00,
2013-11-09 17:26:00,47.6,31.0,30.04,South,188,1.0,-999.0,52,-99.99,,,0.00,weatherlink.com 1.10,2013-11-09 22:26:00,
2013-11-09 17:42:00,47.3,31.0,30.05,South,188,0.0,-999.0,53,-99.99,,,0.00,weatherlink.com 1.10,2013-11-09 22:42:00,
2013-11-09 17:57:00,47.0,31.0,30.04,South,188,2.0,-999.0,54,-99.99,,,0.00,weatherlink.com 1.10,2013-11-09 22:57:00,
2013-11-09 18:12:00,46.9,31.0,30.04,SSW,205,1.0,-999.0,54,-99.99,,,0.00,weatherlink.com 1.10,2013-11-09 23:12:00,
2013-11-09 18:27:00,46.9,31.0,30.04,South,190,1.0,-999.0,54,-99.99,,,0.00,weatherlink.com 1.10,2013-11-09 23:27:00,
2013-11-09 18:42:00,46.8,31.0,30.03,South,190,0.0,-999.0,55,-99.99,,,0.00,weatherlink.com 1.10,2013-11-09 23:42:00,
2013-11-09 18:57:00,46.8,31.0,30.03,South,171,4.0,-999.0,55,-99.99,,,0.00,weatherlink.com 1.10,2013-11-09 23:57:00,
2013-11-09 19:12:00,46.9,32.0,30.03,SSW,195,6.0,-999.0,56,-99.99,,,0.00,weatherlink.com 1.10,2013-11-10 00:12:00,
2013-11-09 19:27:00,46.9,32.0,30.02,SSW,195,7.0,-999.0,57,-99.99,,,0.00,weatherlink.com 1.10,2013-11-10 00:27:00,
2013-11-09 19:42:00,46.9,33.0,30.02,SSW,196,3.0,-999.0,60,-99.99,,,0.00,weatherlink.com 1.10,2013-11-10 00:42:00,
2013-11-09 19:57:00,46.7,35.0,30.01,South,180,0.0,-999.0,63,-99.99,,,0.00,weatherlink.com 1.10,2013-11-10 00:57:00,
2013-11-09 20:12:00,46.5,35.0,30.01,SSE,155,2.0,-999.0,64,-99.99,,,0.00,weatherlink.com 1.10,2013-11-10 01:12:00,
2013-11-09 20:27:00,46.5,35.0,30.01,SSW,194,4.0,-999.0,65,-99.99,,,0.00,weatherlink.com 1.10,2013-11-10 01:27:00,
2013-11-09 20:42:00,46.2,35.0,30.02,SSW,202,1.0,-999.0,65,-99.99,,,0.00,weatherlink.com 1.10,2013-11-10 01:42:00,
2013-11-09 20:57:00,46.0,35.0,30.01,SSW,202,1.0,-999.0,65,-99.99,,,0.00,weatherlink.com 1.10,2013-11-10 01:57:00,
2013-11-09 21:12:00,46.0,35.0,30.00,SSE,161,2.0,-999.0,66,-99.99,,,0.00,weatherlink.com 1.10,2013-11-10 02:12:00,
2013-11-09 21:27:00,46.1,35.0,29.99,South,180,2.0,-999.0,66,-99.99,,,0.00,weatherlink.com 1.10,2013-11-10 02:27:00,
2013-11-09 21:42:00,46.2,35.0,29.99,SSW,192,0.0,-999.0,66,-99.99,,,0.00,weatherlink.com 1.10,2013-11-10 02:42:00,
2013-11-09 21:57:00,46.0,36.0,29.98,SSW,207,4.0,-999.0,67,-99.99,,,0.00,weatherlink.com 1.10,2013-11-10 02:57:00,
2013-11-09 22:12:00,45.8,36.0,29.98,SSW,193,4.0,-999.0,69,-99.99,,,0.00,weatherlink.com 1.10,2013-11-10 03:12:00,
2013-11-09 22:27:00,45.4,36.0,29.96,SSW,197,4.0,-999.0,70,-99.99,,,0.00,weatherlink.com 1.10,2013-11-10 03:27:00,
2013-11-09 22:42:00,45.0,36.0,29.95,South,172,1.0,-999.0,71,-99.99,,,0.00,weatherlink.com 1.10,2013-11-10 03:42:00,
2013-11-09 22:57:00,44.8,36.0,29.94,SSW,195,5.0,-999.0,72,-99.99,,,0.00,weatherlink.com 1.10,2013-11-10 03:57:00,
2013-11-09 23:12:00,44.8,36.0,29.94,SSW,198,4.0,-999.0,72,-99.99,,,0.00,weatherlink.com 1.10,2013-11-10 04:12:00,
2013-11-09 23:27:00,44.8,36.0,29.93,SSW,193,5.0,-999.0,72,-99.99,,,0.00,weatherlink.com 1.10,2013-11-10 04:27:00,
2013-11-09 23:42:00,44.7,37.0,29.92,South,177,8.0,-999.0,73,-99.99,,,0.00,weatherlink.com 1.10,2013-11-10 04:42:00,
2013-11-09 23:57:00,44.7,37.0,29.92,South,189,5.0,-999.0,73,-99.99,,,0.00,weatherlink.com 1.10,2013-11-10 04:57:00,